This demonstration page uses our WeatherBlox Daily Observations layout. Learn more.

Left ArrowRight Arrow

Hourly Observations for July 15, 2018

Temp ( °F °C ) Dew Point ( °F °C ) Humidity (%) Winds ( mph kmh ) Pressure ( in mb ) Visibility ( mi km ) Precip ( " mm )
12:51 am 00:51 Clear 72 22.2 67 19.4 84 84 NNW 6 9 29.91 1013 10 16.0934 N/A
1:51 am 01:51 Clear 72 22.2 67 19.4 84 84 WSW 6 9 29.91 1013 10 16.0934 N/A
2:51 am 02:51 Clear 70 21.1 68 20 93 93 W 5 7 29.91 1013 10 16.0934 N/A
3:51 am 03:51 Clear 70 21.1 68 20 93 93 N N/A 29.91 1013 10 16.0934 N/A
4:51 am 04:51 Clear 70 21.1 68 20 93 93 N N/A 29.9 1013 10 16.0934 N/A
5:51 am 05:51 Sunny 71 21.7 68 20 90 90 N N/A 29.91 1013 10 16.0934 N/A
6:51 am 06:51 Sunny 73 22.8 67 19.4 81 81 N N/A 29.92 1013 10 16.0934 N/A
7:51 am 07:51 Sunny 76 24.4 66 18.9 72 72 VRB 5 7 29.93 1014 10 16.0934 N/A
8:51 am 08:51 Sunny 80 26.7 65 18.3 60 60 VRB 5 7 29.94 1014 10 16.0934 N/A
9:51 am 09:51 Mostly Cloudy 84 28.9 66 18.9 55 55 W 10 17 29.95 1014 10 16.0934 N/A
10:51 am 10:51 Mostly Sunny 87 30.6 65 18.3 48 48 W 18 30 29.93 1014 10 16.0934 N/A
11:51 am 11:51 Mostly Sunny 86 30 65 18.3 49 49 W 14 22 29.92 1013 10 16.0934 N/A
12:51 pm 12:51 Sunny 90 32.2 63 17.2 41 41 WNW 18 30 29.89 1012 10 16.0934 N/A
1:51 pm 13:51 Sunny 91 32.8 62 16.7 38 38 W 13 20 29.86 1011 10 16.0934 N/A
2:51 pm 14:51 Mostly Sunny 91 32.8 60 15.6 35 35 WNW 16 26 29.82 1010 10 16.0934 N/A
3:51 pm 15:51 Sunny 92 33.3 61 16.1 36 36 WNW 21 33 29.81 1010 10 16.0934 N/A
4:51 pm 16:51 Sunny 92 33.3 60 15.6 34 34 WNW 13 20 29.8 1009 10 16.0934 N/A
5:51 pm 17:51 Sunny 89 31.7 61 16.1 39 39 WNW 18 30 29.8 1009 10 16.0934 N/A
6:51 pm 18:51 Sunny 86 30 62 16.7 45 45 NW 16 26 29.8 1009 10 16.0934 N/A
7:51 pm 19:51 Clear 84 28.9 63 17.2 49 49 NW 20 31 29.83 1010 10 16.0934 N/A
8:51 pm 20:51 Clear 83 28.3 62 16.7 49 49 NW 15 24 29.85 1011 10 16.0934 N/A
9:51 pm 21:51 Clear 82 27.8 63 17.2 53 53 NW 12 19 29.87 1011 10 16.0934 N/A
10:51 pm 22:51 Clear 81 27.2 63 17.2 54 54 WNW 10 17 29.86 1011 10 16.0934 N/A
11:51 pm 23:51 Clear 79 26.1 64 17.8 60 60 NW 6 9 29.86 1011 10 16.0934 N/A

Powered by AerisWeather